Location: Frysztak
(49.8373°N, 21.6089°E)
Time: 08:54:38
(UTC+01:00)

ISS - Visible Passes

Search period start: 24 March 2019 00:00
Search period end: 03 April 2019 01:00
Orbit: 408 x 411 km, 51.6° (Epoch: 24 March)

Date Brightness Start Highest point End Pass type
(mag) Time Alt. Az. Time Alt. Az. Time Alt. Az.
24 Mar -3.9 19:33:17 10° WSW 19:36:34 67° SSE 19:37:09 53° ESE visible
25 Mar -3.4 18:42:47 10° SW 18:45:58 46° SSE 18:48:52 12° E visible
25 Mar -2.7 20:19:13 10° W 20:21:38 43° WNW 20:21:38 43° WNW visible
26 Mar -3.8 19:28:30 10° WSW 19:31:49 80° NNW 19:33:13 32° ENE visible
26 Mar -0.8 21:05:17 10° WNW 21:05:59 15° WNW 21:05:59 15° WNW visible
27 Mar -3.8 18:37:50 10° WSW 18:41:08 80° SSE 18:44:27 10° ENE visible
27 Mar -3.2 20:14:34 10° W 20:17:27 55° NW 20:17:27 55° NW visible
28 Mar -3.5 19:23:48 10° W 19:27:06 63° N 19:28:51 24° ENE visible
28 Mar -1.1 21:00:32 10° WNW 21:01:37 19° WNW 21:01:37 19° WNW visible
29 Mar -3.6 18:33:02 10° W 18:36:20 72° NNW 18:39:39 10° ENE visible
29 Mar -3.6 20:09:48 10° WNW 20:12:58 66° NNW 20:12:58 66° NNW visible
30 Mar -3.5 19:19:03 10° W 19:22:21 61° N 19:24:16 22° E visible
30 Mar -1.4 20:55:42 10° WNW 20:57:01 22° W 20:57:01 22° W visible
31 Mar -3.9 21:04:58 10° WNW 21:08:17 89° SSW 21:08:18 88° SSE visible
01 Apr -3.7 20:14:13 10° WNW 20:17:32 74° NNE 20:19:35 21° E visible
01 Apr -1.5 21:50:55 10° W 21:52:20 21° W 21:52:20 21° W visible
02 Apr -3.6 21:00:05 10° WNW 21:03:20 54° SSW 21:03:36 51° S visible
